Time,TemperatureF,DewpointF,PressureIn,WindDirection,WindDirectionDegrees,WindSpeedMPH,WindSpeedGustMPH,Humidity,HourlyPrecipIn,Conditions,Clouds,dailyrainin,SoftwareType,DateUTC
2013-04-19 00:04:00,39.0,36.6,29.66,WSW,253,8.3,8.3,91,0.00,,OVC029,0.00,VWS V14.01,2013-04-19 05:04:00,
2013-04-19 00:09:00,38.8,36.4,29.66,WSW,252,6.3,15.4,91,0.00,,OVC029,0.00,VWS V14.01,2013-04-19 05:09:00,
2013-04-19 00:14:00,38.8,36.4,29.66,WNW,283,6.3,12.3,91,0.00,,OVC029,0.00,VWS V14.01,2013-04-19 05:14:00,
2013-04-19 00:19:00,38.7,36.3,29.66,SW,228,3.1,10.5,91,0.00,,OVC029,0.00,VWS V14.01,2013-04-19 05:19:00,
2013-04-19 00:24:00,38.7,34.2,29.66,NW,307,3.6,14.5,84,0.00,,OVC031,0.00,VWS V14.01,2013-04-19 05:24:00,
2013-04-19 00:29:00,38.7,34.2,29.66,SSW,209,5.8,11.9,84,0.00,,OVC031,0.00,VWS V14.01,2013-04-19 05:29:00,
2013-04-19 00:35:00,38.7,34.2,29.66,West,277,8.3,12.3,84,0.00,,OVC031,0.00,VWS V14.01,2013-04-19 05:35:00,
2013-04-19 00:40:00,38.7,34.2,29.66,WNW,284,4.9,11.9,84,0.00,,OVC031,0.00,VWS V14.01,2013-04-19 05:40:00,
2013-04-19 00:45:00,38.7,34.2,29.66,West,281,15.4,15.4,84,0.00,,OVC031,0.00,VWS V14.01,2013-04-19 05:45:00,
2013-04-19 00:50:00,38.7,34.2,29.63,WSW,244,7.2,15.4,84,0.00,,OVC031,0.00,VWS V14.01,2013-04-19 05:50:00,
2013-04-19 00:55:00,38.5,34.1,29.63,West,264,10.1,10.1,84,0.00,,OVC031,0.00,VWS V14.01,2013-04-19 05:55:00,
2013-04-19 01:00:00,38.5,34.1,29.63,SW,215,8.3,8.3,84,0.00,,OVC031,0.00,VWS V14.01,2013-04-19 06:00:00,
2013-04-19 01:05:00,38.5,34.1,29.63,WSW,238,5.8,11.0,84,0.00,,OVC031,0.00,VWS V14.01,2013-04-19 06:05:00,
2013-04-19 01:10:00,38.5,34.1,29.63,WSW,253,6.7,6.7,84,0.00,,OVC031,0.00,VWS V14.01,2013-04-19 06:10:00,
2013-04-19 01:15:00,38.5,34.1,29.63,SSW,210,5.8,12.8,84,0.00,,OVC031,0.00,VWS V14.01,2013-04-19 06:15:00,
2013-04-19 01:20:00,38.5,34.1,29.63,WNW,291,6.3,8.3,84,0.00,,OVC031,0.00,VWS V14.01,2013-04-19 06:20:00,
2013-04-19 01:25:00,38.3,33.9,29.63,SW,217,8.7,8.7,84,0.00,,OVC025,0.00,VWS V14.01,2013-04-19 06:25:00,
2013-04-19 01:31:00,38.3,33.9,29.63,SW,227,11.0,11.0,84,0.00,,OVC025,0.00,VWS V14.01,2013-04-19 06:31:00,
2013-04-19 01:36:00,38.3,33.9,29.63,WNW,283,8.7,15.4,84,0.00,,OVC025,0.00,VWS V14.01,2013-04-19 06:36:00,
2013-04-19 01:41:00,38.3,33.9,29.63,West,272,7.2,7.2,84,0.00,,OVC025,0.00,VWS V14.01,2013-04-19 06:41:00,
2013-04-19 01:46:00,38.3,33.9,29.63,West,278,8.7,15.0,84,0.00,,OVC025,0.00,VWS V14.01,2013-04-19 06:46:00,
2013-04-19 01:51:00,38.3,33.9,29.63,West,263,8.7,12.8,84,0.00,,OVC025,0.00,VWS V14.01,2013-04-19 06:51:00,
2013-04-19 01:56:00,38.3,33.9,29.63,WNW,286,5.8,12.8,84,0.00,,OVC025,0.00,VWS V14.01,2013-04-19 06:56:00,
2013-04-19 02:01:00,38.3,33.9,29.63,WSW,255,7.6,17.0,84,0.00,,OVC025,0.00,VWS V14.01,2013-04-19 07:01:00,
2013-04-19 02:06:00,38.3,33.9,29.63,SW,233,5.4,8.1,84,0.00,,OVC031,0.00,VWS V14.01,2013-04-19 07:06:00,
2013-04-19 02:11:00,38.3,33.9,29.63,West,275,8.3,15.0,84,0.00,,OVC031,0.00,VWS V14.01,2013-04-19 07:11:00,
2013-04-19 02:16:00,38.3,33.9,29.60,SW,234,7.6,14.1,84,0.00,,OVC031,0.00,VWS V14.01,2013-04-19 07:16:00,
2013-04-19 02:21:00,38.1,33.7,29.60,West,281,7.6,15.0,84,0.00,,OVC031,0.00,VWS V14.01,2013-04-19 07:21:00,
2013-04-19 02:27:00,38.1,33.7,29.60,SW,236,7.6,10.5,84,0.00,,OVC029,0.00,VWS V14.01,2013-04-19 07:27:00,
2013-04-19 02:32:00,38.1,33.7,29.63,WSW,240,8.3,12.3,84,0.00,,OVC029,0.00,VWS V14.01,2013-04-19 07:32:00,
2013-04-19 02:37:00,38.1,33.7,29.63,SW,231,4.9,10.1,84,0.00,,OVC029,0.00,VWS V14.01,2013-04-19 07:37:00,
2013-04-19 02:42:00,38.3,33.9,29.63,WSW,254,5.4,6.3,84,0.00,,OVC029,0.00,VWS V14.01,2013-04-19 07:42:00,
2013-04-19 02:47:00,38.1,33.7,29.63,WSW,248,4.0,11.0,84,0.00,,OVC029,0.00,VWS V14.01,2013-04-19 07:47:00,
2013-04-19 02:52:00,38.1,33.7,29.63,West,270,7.6,7.6,84,0.00,,OVC029,0.00,VWS V14.01,2013-04-19 07:52:00,
2013-04-19 02:57:00,38.1,33.7,29.63,SW,233,6.3,8.7,84,0.00,,OVC029,0.00,VWS V14.01,2013-04-19 07:57:00,
2013-04-19 03:02:00,38.1,33.7,29.63,West,276,6.3,10.5,84,0.00,,OVC027,0.00,VWS V14.01,2013-04-19 08:02:00,
2013-04-19 03:07:00,38.1,33.7,29.63,WSW,249,8.3,11.0,84,0.00,,OVC027,0.00,VWS V14.01,2013-04-19 08:07:00,
2013-04-19 03:12:00,38.1,33.7,29.63,SW,222,8.7,12.8,84,0.00,,OVC027,0.00,VWS V14.01,2013-04-19 08:12:00,
2013-04-19 03:17:00,38.1,33.7,29.63,NW,304,11.0,11.0,84,0.00,,OVC027,0.00,VWS V14.01,2013-04-19 08:17:00,
2013-04-19 03:22:00,38.1,33.7,29.63,WSW,250,6.3,14.5,84,0.00,,OVC027,0.00,VWS V14.01,2013-04-19 08:22:00,
2013-04-19 03:27:00,38.1,33.7,29.63,WSW,255,12.3,12.3,84,0.00,,OVC027,0.00,VWS V14.01,2013-04-19 08:27:00,
2013-04-19 03:33:00,37.9,33.5,29.63,WNW,302,5.4,11.0,84,0.00,,OVC027,0.00,VWS V14.01,2013-04-19 08:33:00,
2013-04-19 03:38:00,37.9,33.5,29.63,WNW,284,11.0,12.3,84,0.00,,OVC027,0.00,VWS V14.01,2013-04-19 08:38:00,
2013-04-19 03:43:00,37.9,33.5,29.63,West,259,10.1,11.0,84,0.00,,OVC029,0.00,VWS V14.01,2013-04-19 08:43:00,
2013-04-19 03:48:00,37.9,33.5,29.63,SW,232,7.6,10.5,84,0.00,,OVC029,0.00,VWS V14.01,2013-04-19 08:48:00,
2013-04-19 03:53:00,37.9,33.5,29.63,West,274,8.7,13.2,84,0.00,,OVC029,0.00,VWS V14.01,2013-04-19 08:53:00,
2013-04-19 03:58:00,37.9,33.5,29.63,WSW,250,10.1,15.0,84,0.00,,OVC029,0.00,VWS V14.01,2013-04-19 08:58:00,
2013-04-19 04:03:00,37.9,33.5,29.63,SW,220,6.3,15.4,84,0.00,,OVC029,0.00,VWS V14.01,2013-04-19 09:03:00,
2013-04-19 04:08:00,37.8,33.4,29.63,WNW,300,8.1,19.7,84,0.00,,OVC029,0.00,VWS V14.01,2013-04-19 09:08:00,
2013-04-19 04:13:00,37.8,33.4,29.63,West,262,6.3,13.2,84,0.00,,OVC031,0.00,VWS V14.01,2013-04-19 09:13:00,
2013-04-19 04:18:00,37.6,33.2,29.63,NW,319,9.6,12.3,84,0.00,,OVC031,0.00,VWS V14.01,2013-04-19 09:18:00,
2013-04-19 04:24:00,37.6,33.2,29.63,West,259,5.4,12.3,84,0.00,,OVC031,0.00,VWS V14.01,2013-04-19 09:24:00,
2013-04-19 04:29:00,37.4,33.0,29.63,SW,236,5.4,11.0,84,0.00,,OVC031,0.00,VWS V14.01,2013-04-19 09:29:00,
2013-04-19 04:34:00,37.4,33.0,29.63,WSW,250,8.1,10.1,84,0.00,,OVC035,0.00,VWS V14.01,2013-04-19 09:34:00,
2013-04-19 04:39:00,37.4,33.0,29.63,NW,309,9.6,11.9,84,0.00,,OVC035,0.00,VWS V14.01,2013-04-19 09:39:00,
2013-04-19 04:44:00,37.4,33.0,29.63,West,272,8.7,8.7,84,0.00,,OVC036,0.00,VWS V14.01,2013-04-19 09:44:00,
2013-04-19 04:49:00,37.4,33.0,29.63,West,260,8.3,15.4,84,0.00,,OVC036,0.00,VWS V14.01,2013-04-19 09:49:00,
2013-04-19 04:54:00,37.4,33.0,29.63,WSW,245,8.3,14.5,84,0.00,,OVC036,0.00,VWS V14.01,2013-04-19 09:54:00,
2013-04-19 04:59:00,37.4,33.0,29.63,West,267,7.6,9.6,84,0.00,,OVC036,0.00,VWS V14.01,2013-04-19 09:59:00,
2013-04-19 05:04:00,37.2,32.8,29.63,WSW,250,8.1,14.5,84,0.00,,OVC036,0.00,VWS V14.01,2013-04-19 10:04:00,
2013-04-19 05:09:00,37.2,32.8,29.63,SW,225,5.8,16.8,84,0.00,,OVC036,0.00,VWS V14.01,2013-04-19 10:09:00,
2013-04-19 05:14:00,37.2,32.8,29.63,West,269,6.3,17.0,84,0.00,,OVC032,0.00,VWS V14.01,2013-04-19 10:14:00,
2013-04-19 05:20:00,37.0,32.7,29.66,WSW,258,8.7,15.0,84,0.00,,OVC032,0.00,VWS V14.01,2013-04-19 10:20:00,
2013-04-19 05:25:00,37.0,32.7,29.66,WNW,285,3.6,11.0,84,0.00,,OVC032,0.00,VWS V14.01,2013-04-19 10:25:00,
2013-04-19 05:30:00,37.0,32.7,29.66,WSW,238,10.1,15.4,84,0.00,,OVC032,0.00,VWS V14.01,2013-04-19 10:30:00,
2013-04-19 05:35:00,37.0,32.7,29.66,WSW,249,4.0,11.0,84,0.00,,OVC032,0.00,VWS V14.01,2013-04-19 10:35:00,
2013-04-19 05:40:00,36.9,32.5,29.66,SSW,212,5.4,5.8,84,0.00,,OVC032,0.00,VWS V14.01,2013-04-19 10:40:00,
2013-04-19 05:45:00,36.9,32.5,29.66,West,265,5.8,15.4,84,0.00,,OVC030,0.00,VWS V14.01,2013-04-19 10:45:00,
2013-04-19 05:50:00,36.9,32.5,29.66,WSW,241,10.5,10.5,84,0.00,,OVC030,0.00,VWS V14.01,2013-04-19 10:50:00,
2013-04-19 05:55:00,36.9,32.5,29.66,SW,229,7.6,7.6,84,0.00,,OVC030,0.00,VWS V14.01,2013-04-19 10:55:00,
2013-04-19 06:00:00,36.9,32.5,29.66,WSW,241,9.6,9.6,84,0.00,,OVC030,0.00,VWS V14.01,2013-04-19 11:00:00,
2013-04-19 06:05:00,36.9,32.5,29.66,WNW,297,8.1,10.1,84,0.00,,OVC034,0.00,VWS V14.01,2013-04-19 11:05:00,
2013-04-19 06:10:00,36.9,32.5,29.66,NW,320,8.1,8.7,84,0.00,,OVC034,0.00,VWS V14.01,2013-04-19 11:10:00,
2013-04-19 06:15:00,36.9,32.5,29.66,West,272,6.3,14.5,84,0.00,,OVC034,0.00,VWS V14.01,2013-04-19 11:15:00,
2013-04-19 06:20:00,36.9,32.5,29.66,SW,234,5.4,11.9,84,0.00,,OVC034,0.00,VWS V14.01,2013-04-19 11:20:00,
2013-04-19 06:26:00,36.9,32.5,29.66,WSW,256,8.3,8.3,84,0.00,,OVC032,0.00,VWS V14.01,2013-04-19 11:26:00,
2013-04-19 06:31:00,36.9,32.5,29.66,SW,219,5.8,6.3,84,0.00,,OVC032,0.00,VWS V14.01,2013-04-19 11:31:00,
2013-04-19 06:36:00,36.9,32.5,29.66,WSW,250,8.1,8.1,84,0.00,,OVC032,0.00,VWS V14.01,2013-04-19 11:36:00,
2013-04-19 06:41:00,36.9,32.5,29.66,WSW,244,6.3,8.7,84,0.00,,OVC032,0.00,VWS V14.01,2013-04-19 11:41:00,
2013-04-19 06:46:00,36.9,32.5,29.66,SW,235,6.3,8.1,84,0.00,,OVC034,0.00,VWS V14.01,2013-04-19 11:46:00,
2013-04-19 06:51:00,36.7,32.3,29.66,WNW,283,8.7,9.6,84,0.00,,OVC034,0.00,VWS V14.01,2013-04-19 11:51:00,
2013-04-19 06:56:00,36.7,32.3,29.66,WSW,247,10.1,10.1,84,0.00,,OVC034,0.00,VWS V14.01,2013-04-19 11:56:00,
2013-04-19 07:01:00,36.7,32.3,29.66,West,264,7.6,15.0,84,0.00,,OVC034,0.00,VWS V14.01,2013-04-19 12:01:00,
2013-04-19 07:06:00,36.7,32.3,29.66,WSW,249,5.8,11.0,84,0.00,,OVC034,0.00,VWS V14.01,2013-04-19 12:06:00,
2013-04-19 07:11:00,36.7,32.3,29.66,WSW,258,7.6,10.1,84,0.00,,OVC034,0.00,VWS V14.01,2013-04-19 12:11:00,
2013-04-19 07:16:00,36.7,32.3,29.66,NNW,335,4.0,11.0,84,0.00,,OVC034,0.00,VWS V14.01,2013-04-19 12:16:00,
2013-04-19 07:22:00,36.7,32.3,29.66,WSW,246,4.9,13.2,84,0.00,,OVC041,0.00,VWS V14.01,2013-04-19 12:22:00,
2013-04-19 07:27:00,36.7,32.3,29.66,WSW,238,5.8,10.5,84,0.00,,OVC041,0.00,VWS V14.01,2013-04-19 12:27:00,
2013-04-19 07:32:00,36.7,32.3,29.69,SW,234,8.1,11.0,84,0.00,,OVC041,0.00,VWS V14.01,2013-04-19 12:32:00,
2013-04-19 07:37:00,36.7,32.3,29.69,WSW,257,8.1,12.8,84,0.00,,OVC041,0.00,VWS V14.01,2013-04-19 12:37:00,
2013-04-19 07:42:00,36.5,32.1,29.69,West,269,7.6,17.0,84,0.00,,OVC039,0.00,VWS V14.01,2013-04-19 12:42:00,
2013-04-19 07:47:00,36.5,32.1,29.69,SW,228,5.4,8.7,84,0.00,,OVC039,0.00,VWS V14.01,2013-04-19 12:47:00,
2013-04-19 07:52:00,36.5,32.1,29.69,West,270,5.8,8.3,84,0.00,,OVC039,0.00,VWS V14.01,2013-04-19 12:52:00,
2013-04-19 07:57:00,36.5,32.1,29.69,West,277,8.7,8.7,84,0.00,,OVC039,0.00,VWS V14.01,2013-04-19 12:57:00,
2013-04-19 08:02:00,36.5,32.1,29.69,West,265,11.0,16.3,84,0.00,,OVC037,0.00,VWS V14.01,2013-04-19 13:02:00,
2013-04-19 08:07:00,36.3,32.0,29.69,SW,230,11.0,13.2,84,0.00,,OVC037,0.00,VWS V14.01,2013-04-19 13:07:00,
2013-04-19 08:12:00,36.3,32.0,29.69,West,276,7.6,10.5,84,0.00,,OVC037,0.00,VWS V14.01,2013-04-19 13:12:00,
2013-04-19 08:17:00,36.3,32.0,29.69,WSW,252,8.1,11.0,84,0.00,,OVC037,0.00,VWS V14.01,2013-04-19 13:17:00,
2013-04-19 08:23:00,36.1,31.8,29.69,West,260,6.3,12.3,84,0.00,,OVC037,0.00,VWS V14.01,2013-04-19 13:23:00,
2013-04-19 08:28:00,36.1,31.8,29.69,WSW,238,6.3,8.3,84,0.00,,OVC037,0.00,VWS V14.01,2013-04-19 13:28:00,
2013-04-19 08:33:00,36.1,31.8,29.69,West,272,4.0,5.8,84,0.00,,OVC037,0.00,VWS V14.01,2013-04-19 13:33:00,
2013-04-19 08:38:00,36.3,32.0,29.69,SW,229,8.3,10.1,84,0.00,,OVC042,0.00,VWS V14.01,2013-04-19 13:38:00,
2013-04-19 08:43:00,36.3,32.0,29.69,WSW,253,10.1,15.0,84,0.00,,OVC042,0.00,VWS V14.01,2013-04-19 13:43:00,
2013-04-19 08:48:00,36.3,32.0,29.69,SSW,203,7.6,11.9,84,0.00,,OVC042,0.00,VWS V14.01,2013-04-19 13:48:00,
2013-04-19 08:53:00,36.3,32.0,29.69,WSW,244,5.8,12.3,84,0.00,,OVC042,0.00,VWS V14.01,2013-04-19 13:53:00,
2013-04-19 08:58:00,36.5,32.1,29.69,WSW,247,4.9,12.3,84,0.00,,OVC044,0.00,VWS V14.01,2013-04-19 13:58:00,
2013-04-19 09:03:00,36.5,32.1,29.69,West,277,6.3,10.5,84,0.00,,OVC044,0.00,VWS V14.01,2013-04-19 14:03:00,
2013-04-19 09:09:00,36.3,32.0,29.69,WSW,250,11.0,17.9,84,0.00,,OVC044,0.00,VWS V14.01,2013-04-19 14:09:00,
2013-04-19 09:14:00,36.3,32.0,29.69,WSW,255,11.0,11.9,84,0.00,,OVC044,0.00,VWS V14.01,2013-04-19 14:14:00,
2013-04-19 09:19:00,36.3,32.0,29.69,West,262,11.0,18.8,84,0.00,,OVC044,0.00,VWS V14.01,2013-04-19 14:19:00,
2013-04-19 09:24:00,36.3,32.0,29.69,SSW,212,10.1,11.9,84,0.00,,OVC038,0.00,VWS V14.01,2013-04-19 14:24:00,
2013-04-19 09:29:00,36.5,32.1,29.69,WSW,244,8.1,11.9,84,0.00,,OVC038,0.00,VWS V14.01,2013-04-19 14:29:00,
2013-04-19 09:34:00,37.0,32.7,29.69,West,259,6.3,10.1,84,0.00,,OVC038,0.00,VWS V14.01,2013-04-19 14:34:00,
2013-04-19 09:39:00,37.4,33.0,29.69,WSW,239,7.6,11.0,84,0.00,,OVC038,0.00,VWS V14.01,2013-04-19 14:39:00,
2013-04-19 09:44:00,37.6,33.2,29.69,SW,216,7.2,11.0,84,0.00,,OVC040,0.00,VWS V14.01,2013-04-19 14:44:00,
2013-04-19 09:50:00,37.9,33.5,29.69,SW,224,7.6,10.5,84,0.00,,OVC040,0.00,VWS V14.01,2013-04-19 14:50:00,
2013-04-19 09:55:00,37.9,33.5,29.69,SSW,211,7.6,13.2,84,0.00,,OVC040,0.00,VWS V14.01,2013-04-19 14:55:00,
2013-04-19 10:00:00,37.9,33.5,29.69,SW,219,8.3,12.3,84,0.00,,OVC040,0.00,VWS V14.01,2013-04-19 15:00:00,
2013-04-19 10:05:00,37.8,33.4,29.69,SW,221,5.4,10.1,84,0.00,,OVC038,0.00,VWS V14.01,2013-04-19 15:05:00,
2013-04-19 10:10:00,37.8,33.4,29.69,WNW,283,15.9,15.9,84,0.00,,OVC038,0.00,VWS V14.01,2013-04-19 15:10:00,
2013-04-19 10:15:00,37.6,33.2,29.69,WSW,258,5.4,15.9,84,0.00,,OVC038,0.00,VWS V14.01,2013-04-19 15:15:00,
2013-04-19 10:20:00,37.6,33.2,29.69,WSW,252,6.3,12.3,84,0.00,,OVC038,0.00,VWS V14.01,2013-04-19 15:20:00,
2013-04-19 10:25:00,37.6,33.2,29.69,WSW,252,14.5,14.5,84,0.00,,OVC036,0.00,VWS V14.01,2013-04-19 15:25:00,
2013-04-19 10:30:00,37.6,33.2,29.69,West,261,3.6,23.7,84,0.00,,OVC036,0.00,VWS V14.01,2013-04-19 15:30:00,
2013-04-19 10:35:00,37.6,33.2,29.69,West,261,10.5,10.5,84,0.00,,OVC036,0.00,VWS V14.01,2013-04-19 15:35:00,
2013-04-19 10:40:00,37.6,33.2,29.69,WNW,301,6.3,8.1,84,0.00,,OVC036,0.00,VWS V14.01,2013-04-19 15:40:00,
2013-04-19 10:45:00,37.6,33.2,29.69,West,278,8.7,12.3,84,0.00,,OVC042,0.00,VWS V14.01,2013-04-19 15:45:00,
2013-04-19 10:50:00,37.8,33.4,29.72,WSW,257,6.3,8.7,84,0.00,,OVC042,0.00,VWS V14.01,2013-04-19 15:50:00,
2013-04-19 10:55:00,37.8,33.4,29.72,WSW,244,4.0,5.8,84,0.00,,OVC042,0.00,VWS V14.01,2013-04-19 15:55:00,
2013-04-19 11:00:00,37.6,33.2,29.72,SW,235,5.4,6.3,84,0.00,,OVC042,0.00,VWS V14.01,2013-04-19 16:00:00,
2013-04-19 11:05:00,37.6,33.2,29.72,SW,233,8.3,8.3,84,0.00,,OVC042,0.00,VWS V14.01,2013-04-19 16:05:00,
2013-04-19 11:11:00,37.4,33.0,29.72,SW,236,6.3,10.1,84,0.00,,OVC042,0.00,VWS V14.01,2013-04-19 16:11:00,
2013-04-19 11:16:00,37.6,33.2,29.72,SW,230,8.1,13.6,84,0.00,,OVC042,0.00,VWS V14.01,2013-04-19 16:16:00,
2013-04-19 11:21:00,37.9,33.5,29.72,WSW,250,5.4,8.1,84,0.00,,OVC042,0.00,VWS V14.01,2013-04-19 16:21:00,
2013-04-19 11:26:00,38.5,34.1,29.72,WSW,240,8.7,11.0,84,0.00,,OVC039,0.00,VWS V14.01,2013-04-19 16:26:00,
2013-04-19 11:31:00,38.7,34.2,29.72,WSW,237,11.9,11.9,84,0.00,,OVC039,0.00,VWS V14.01,2013-04-19 16:31:00,
2013-04-19 11:36:00,38.7,34.2,29.72,WSW,241,12.3,12.3,84,0.00,,OVC039,0.00,VWS V14.01,2013-04-19 16:36:00,
2013-04-19 11:41:00,38.1,33.7,29.72,WSW,244,6.7,11.0,84,0.00,,OVC039,0.00,VWS V14.01,2013-04-19 16:41:00,
2013-04-19 11:46:00,37.9,33.5,29.72,NW,304,13.2,13.2,84,0.00,,OVC042,0.00,VWS V14.01,2013-04-19 16:46:00,
2013-04-19 11:51:00,37.8,33.4,29.72,WSW,256,10.1,11.0,84,0.00,,OVC042,0.00,VWS V14.01,2013-04-19 16:51:00,
2013-04-19 11:56:00,37.9,33.5,29.72,SSW,211,6.7,11.0,84,0.00,,OVC042,0.00,VWS V14.01,2013-04-19 16:56:00,
2013-04-19 12:01:00,38.3,33.9,29.72,WSW,238,5.8,11.0,84,0.00,,OVC042,0.00,VWS V14.01,2013-04-19 17:01:00,
2013-04-19 12:07:00,38.3,33.9,29.72,SW,231,12.8,13.2,84,0.00,,OVC044,0.00,VWS V14.01,2013-04-19 17:07:00,
2013-04-19 12:12:00,38.3,33.9,29.72,West,279,3.6,11.0,84,0.00,,OVC044,0.00,VWS V14.01,2013-04-19 17:12:00,
2013-04-19 12:17:00,38.1,33.7,29.75,West,262,10.1,11.0,84,0.00,,OVC044,0.00,VWS V14.01,2013-04-19 17:17:00,
2013-04-19 12:22:00,38.1,33.7,29.75,West,275,6.3,12.3,84,0.00,,OVC039,0.00,VWS V14.01,2013-04-19 17:22:00,
2013-04-19 12:27:00,38.1,33.7,29.75,WNW,293,12.3,16.8,84,0.00,,OVC039,0.00,VWS V14.01,2013-04-19 17:27:00,
2013-04-19 12:32:00,38.1,33.7,29.75,West,268,13.2,13.2,84,0.00,,OVC039,0.00,VWS V14.01,2013-04-19 17:32:00,
2013-04-19 12:37:00,38.1,33.7,29.75,WNW,287,4.9,10.1,84,0.00,,OVC039,0.00,VWS V14.01,2013-04-19 17:37:00,
2013-04-19 12:42:00,38.1,33.7,29.75,WSW,249,14.5,17.9,84,0.00,,OVC047,0.00,VWS V14.01,2013-04-19 17:42:00,
2013-04-19 12:47:00,38.1,33.7,29.75,West,277,4.0,10.1,84,0.00,,OVC047,0.00,VWS V14.01,2013-04-19 17:47:00,
2013-04-19 12:52:00,38.1,33.7,29.75,SW,234,15.0,15.4,84,0.00,,OVC047,0.00,VWS V14.01,2013-04-19 17:52:00,
2013-04-19 12:58:00,37.9,33.5,29.75,WNW,297,8.7,9.6,84,0.00,,OVC047,0.00,VWS V14.01,2013-04-19 17:58:00,
2013-04-19 13:03:00,37.9,33.5,29.75,SW,225,8.1,13.2,84,0.00,,OVC047,0.00,VWS V14.01,2013-04-19 18:03:00,
2013-04-19 13:08:00,37.9,33.5,29.75,SSW,200,5.4,19.2,84,0.00,,OVC047,0.00,VWS V14.01,2013-04-19 18:08:00,
2013-04-19 13:13:00,38.1,33.7,29.75,West,281,8.1,13.2,84,0.00,,OVC047,0.00,VWS V14.01,2013-04-19 18:13:00,
2013-04-19 13:18:00,38.1,33.7,29.75,SW,236,6.3,13.2,84,0.00,,OVC043,0.00,VWS V14.01,2013-04-19 18:18:00,
2013-04-19 13:23:00,38.1,33.7,29.75,SW,235,7.2,12.3,84,0.00,,OVC043,0.00,VWS V14.01,2013-04-19 18:23:00,
2013-04-19 13:28:00,38.5,34.1,29.75,SW,227,7.6,15.4,84,0.00,,OVC043,0.00,VWS V14.01,2013-04-19 18:28:00,
2013-04-19 13:33:00,38.7,34.2,29.75,WSW,237,8.1,19.7,84,0.00,,OVC043,0.00,VWS V14.01,2013-04-19 18:33:00,
2013-04-19 13:38:00,38.7,34.2,29.75,WNW,290,8.1,14.5,84,0.00,,OVC045,0.00,VWS V14.01,2013-04-19 18:38:00,
2013-04-19 13:43:00,38.5,34.1,29.75,NW,307,6.3,15.9,84,0.00,,OVC045,0.00,VWS V14.01,2013-04-19 18:43:00,
2013-04-19 13:48:00,38.5,34.1,29.78,West,276,12.3,13.2,84,0.00,,OVC045,0.00,VWS V14.01,2013-04-19 18:48:00,
2013-04-19 13:54:00,38.5,34.1,29.78,WNW,294,11.0,11.0,84,0.00,,OVC045,0.00,VWS V14.01,2013-04-19 18:54:00,
2013-04-19 13:59:00,38.5,34.1,29.78,West,260,7.6,12.8,84,0.00,,OVC045,0.00,VWS V14.01,2013-04-19 18:59:00,
2013-04-19 14:04:00,38.5,34.1,29.78,West,276,5.8,15.9,84,0.00,,OVC047,0.00,VWS V14.01,2013-04-19 19:04:00,
2013-04-19 14:09:00,38.5,34.1,29.78,West,278,8.3,12.3,84,0.00,,OVC047,0.00,VWS V14.01,2013-04-19 19:09:00,
2013-04-19 14:14:00,38.5,34.1,29.78,SW,230,4.0,11.9,84,0.00,,OVC047,0.00,VWS V14.01,2013-04-19 19:14:00,
2013-04-19 14:19:00,38.5,34.1,29.78,West,278,5.4,10.5,84,0.00,,OVC047,0.00,VWS V14.01,2013-04-19 19:19:00,
2013-04-19 14:24:00,38.5,34.1,29.78,WSW,237,3.1,12.3,84,0.00,,OVC049,0.00,VWS V14.01,2013-04-19 19:24:00,
2013-04-19 14:29:00,38.5,34.1,29.78,West,268,3.1,13.2,84,0.00,,OVC049,0.00,VWS V14.01,2013-04-19 19:29:00,
2013-04-19 14:34:00,38.5,34.1,29.78,NW,318,7.6,15.4,84,0.00,,OVC049,0.00,VWS V14.01,2013-04-19 19:34:00,
2013-04-19 14:39:00,38.5,34.1,29.78,SW,223,5.4,10.5,84,0.00,,OVC049,0.00,VWS V14.01,2013-04-19 19:39:00,
2013-04-19 14:45:00,38.7,34.2,29.78,WSW,244,5.4,12.8,84,0.00,,OVC050,0.00,VWS V14.01,2013-04-19 19:45:00,
2013-04-19 14:50:00,38.7,34.2,29.80,WSW,256,4.0,11.0,84,0.00,,OVC050,0.00,VWS V14.01,2013-04-19 19:50:00,
2013-04-19 14:55:00,38.8,34.4,29.80,West,275,7.6,10.5,84,0.00,,OVC050,0.00,VWS V14.01,2013-04-19 19:55:00,
2013-04-19 15:00:00,38.8,34.4,29.80,West,280,10.5,12.3,84,0.00,,OVC050,0.00,VWS V14.01,2013-04-19 20:00:00,
2013-04-19 15:05:00,39.2,33.7,29.80,SW,225,12.3,12.3,80,0.00,,OVC050,0.00,VWS V14.01,2013-04-19 20:05:00,
2013-04-19 15:10:00,39.4,33.9,29.80,West,279,5.8,7.6,80,0.00,,OVC050,0.00,VWS V14.01,2013-04-19 20:10:00,
2013-04-19 15:15:00,39.4,33.9,29.80,WSW,251,3.6,7.2,80,0.00,,OVC050,0.00,VWS V14.01,2013-04-19 20:15:00,
2013-04-19 15:20:00,39.4,33.9,29.80,WSW,258,5.8,5.8,80,0.00,,OVC050,0.00,VWS V14.01,2013-04-19 20:20:00,
2013-04-19 15:25:00,39.4,33.9,29.80,WSW,244,4.9,9.6,80,0.00,,OVC050,0.00,VWS V14.01,2013-04-19 20:25:00,
2013-04-19 15:30:00,39.7,34.2,29.80,West,275,6.3,6.3,80,0.00,,OVC050,0.00,VWS V14.01,2013-04-19 20:30:00,
2013-04-19 15:35:00,39.6,34.1,29.80,North,0,5.4,8.3,80,0.00,,OVC050,0.00,VWS V14.01,2013-04-19 20:35:00,
2013-04-19 15:40:00,39.7,34.2,29.80,WSW,245,5.8,8.7,80,0.00,,OVC050,0.00,VWS V14.01,2013-04-19 20:40:00,
2013-04-19 15:46:00,39.9,34.4,29.80,West,272,7.6,12.3,80,0.00,,OVC055,0.00,VWS V14.01,2013-04-19 20:46:00,
2013-04-19 15:51:00,40.3,34.8,29.80,WSW,243,5.8,8.3,80,0.00,,OVC055,0.00,VWS V14.01,2013-04-19 20:51:00,
2013-04-19 15:56:00,40.5,34.9,29.80,WSW,248,5.8,8.3,80,0.00,,OVC055,0.00,VWS V14.01,2013-04-19 20:56:00,
2013-04-19 16:01:00,40.6,35.1,29.80,WSW,251,12.8,12.8,80,0.00,,OVC055,0.00,VWS V14.01,2013-04-19 21:01:00,
2013-04-19 16:06:00,40.6,35.1,29.80,WNW,284,5.8,5.8,80,0.00,,OVC060,0.00,VWS V14.01,2013-04-19 21:06:00,
2013-04-19 16:11:00,40.5,34.9,29.80,West,280,8.7,8.7,80,0.00,,OVC060,0.00,VWS V14.01,2013-04-19 21:11:00,
2013-04-19 16:16:00,40.3,34.8,29.80,NW,320,11.0,15.0,80,0.00,,OVC060,0.00,VWS V14.01,2013-04-19 21:16:00,
2013-04-19 16:21:00,40.3,34.8,29.80,NW,308,8.1,10.5,80,0.00,,OVC060,0.00,VWS V14.01,2013-04-19 21:21:00,
2013-04-19 16:26:00,40.3,34.8,29.80,West,274,12.8,12.8,80,0.00,,OVC060,0.00,VWS V14.01,2013-04-19 21:26:00,
2013-04-19 16:31:00,40.3,34.8,29.83,West,266,6.3,12.8,80,0.00,,OVC060,0.00,VWS V14.01,2013-04-19 21:31:00,
2013-04-19 16:36:00,40.5,34.9,29.83,NW,312,6.3,15.0,80,0.00,,OVC060,0.00,VWS V14.01,2013-04-19 21:36:00,
2013-04-19 16:42:00,40.5,34.9,29.83,WNW,290,5.8,15.0,80,0.00,,OVC060,0.00,VWS V14.01,2013-04-19 21:42:00,
2013-04-19 16:47:00,40.5,34.9,29.83,NW,309,8.7,9.2,80,0.00,,OVC060,0.00,VWS V14.01,2013-04-19 21:47:00,
2013-04-19 16:52:00,40.6,35.1,29.83,WNW,282,2.2,8.7,80,0.00,,OVC060,0.00,VWS V14.01,2013-04-19 21:52:00,
2013-04-19 16:57:00,40.8,35.3,29.83,NNW,348,4.0,8.7,80,0.00,,OVC060,0.00,VWS V14.01,2013-04-19 21:57:00,
2013-04-19 17:02:00,40.8,35.3,29.83,WNW,290,11.0,11.0,80,0.00,,OVC070,0.00,VWS V14.01,2013-04-19 22:02:00,
2013-04-19 17:07:00,40.5,34.9,29.83,West,268,7.6,13.2,80,0.00,,OVC070,0.00,VWS V14.01,2013-04-19 22:07:00,
2013-04-19 17:12:00,40.6,35.1,29.83,NW,311,2.7,8.7,80,0.00,,OVC070,0.00,VWS V14.01,2013-04-19 22:12:00,
2013-04-19 17:17:00,40.8,35.3,29.83,WSW,248,5.8,11.0,80,0.00,,OVC070,0.00,VWS V14.01,2013-04-19 22:17:00,
2013-04-19 17:22:00,41.0,35.5,29.83,SW,236,10.5,14.5,80,0.00,,OVC070,0.00,VWS V14.01,2013-04-19 22:22:00,
2013-04-19 17:27:00,41.0,35.5,29.83,WNW,286,6.3,13.2,80,0.00,,OVC070,0.00,VWS V14.01,2013-04-19 22:27:00,
2013-04-19 17:32:00,41.0,35.5,29.86,West,277,10.1,10.1,80,0.00,,OVC070,0.00,VWS V14.01,2013-04-19 22:32:00,
2013-04-19 17:37:00,41.0,35.5,29.86,WSW,254,4.9,12.8,80,0.00,,OVC070,0.00,VWS V14.01,2013-04-19 22:37:00,
2013-04-19 17:43:00,40.8,35.3,29.86,West,274,8.1,11.9,80,0.00,,OVC080,0.00,VWS V14.01,2013-04-19 22:43:00,
2013-04-19 17:48:00,40.8,35.3,29.86,WSW,253,5.4,8.3,80,0.00,,OVC080,0.00,VWS V14.01,2013-04-19 22:48:00,
2013-04-19 17:53:00,40.8,35.3,29.86,West,268,6.3,9.6,80,0.00,,OVC080,0.00,VWS V14.01,2013-04-19 22:53:00,
2013-04-19 17:58:00,40.6,35.1,29.86,WNW,285,5.8,12.8,80,0.00,,OVC080,0.00,VWS V14.01,2013-04-19 22:58:00,
2013-04-19 18:03:00,40.5,34.9,29.86,SSW,212,5.8,11.0,80,0.00,,OVC080,0.00,VWS V14.01,2013-04-19 23:03:00,
2013-04-19 18:08:00,40.5,34.9,29.86,WNW,303,4.0,11.0,80,0.00,,OVC080,0.00,VWS V14.01,2013-04-19 23:08:00,
2013-04-19 18:13:00,40.5,34.9,29.86,WNW,292,7.2,11.4,80,0.00,,OVC080,0.00,VWS V14.01,2013-04-19 23:13:00,
2013-04-19 18:18:00,40.5,34.9,29.86,West,265,8.1,8.1,80,0.00,,OVC080,0.00,VWS V14.01,2013-04-19 23:18:00,
2013-04-19 18:23:00,40.6,35.1,29.86,West,281,8.1,12.3,80,0.00,,OVC090,0.00,VWS V14.01,2013-04-19 23:23:00,
2013-04-19 18:28:00,40.5,34.9,29.86,West,281,6.3,11.0,80,0.00,,OVC090,0.00,VWS V14.01,2013-04-19 23:28:00,
2013-04-19 18:34:00,40.5,34.9,29.89,WSW,258,8.1,10.1,80,0.00,,OVC090,0.00,VWS V14.01,2013-04-19 23:34:00,
2013-04-19 18:39:00,40.6,35.1,29.89,NW,312,6.3,10.1,80,0.00,,OVC090,0.00,VWS V14.01,2013-04-19 23:39:00,
2013-04-19 18:44:00,40.5,34.9,29.89,NW,318,5.8,12.8,80,0.00,,BKN075,0.00,VWS V14.01,2013-04-19 23:44:00,
2013-04-19 18:49:00,40.5,34.9,29.89,NW,304,6.3,12.3,80,0.00,,BKN075,0.00,VWS V14.01,2013-04-19 23:49:00,
2013-04-19 18:54:00,40.3,34.8,29.89,NW,317,7.6,10.5,80,0.00,,BKN075,0.00,VWS V14.01,2013-04-19 23:54:00,
2013-04-19 18:59:00,40.3,34.8,29.89,NW,304,5.4,10.1,80,0.00,,BKN075,0.00,VWS V14.01,2013-04-19 23:59:00,
2013-04-19 19:04:00,39.9,34.4,29.89,WSW,249,3.6,8.7,80,0.00,,BKN075,0.00,VWS V14.01,2013-04-20 00:04:00,
2013-04-19 19:09:00,39.7,34.2,29.89,West,263,2.7,10.1,80,0.00,,BKN075,0.00,VWS V14.01,2013-04-20 00:09:00,
2013-04-19 19:15:00,39.2,33.7,29.89,West,271,7.2,10.5,80,0.00,,BKN075,0.00,VWS V14.01,2013-04-20 00:15:00,
2013-04-19 19:20:00,39.0,34.6,29.89,WSW,255,8.1,12.3,84,0.00,,BKN075,0.00,VWS V14.01,2013-04-20 00:20:00,
2013-04-19 19:25:00,38.8,34.4,29.89,West,261,3.6,8.3,84,0.00,,BKN075,0.00,VWS V14.01,2013-04-20 00:25:00,
2013-04-19 19:30:00,38.8,34.4,29.89,WNW,303,3.6,10.5,84,0.00,,OVC060,0.00,VWS V14.01,2013-04-20 00:30:00,
2013-04-19 19:35:00,38.8,34.4,29.92,WNW,301,5.8,9.6,84,0.00,,OVC060,0.00,VWS V14.01,2013-04-20 00:35:00,
2013-04-19 19:40:00,38.7,34.2,29.92,WNW,282,5.8,11.0,84,0.00,,OVC060,0.00,VWS V14.01,2013-04-20 00:40:00,
2013-04-19 19:45:00,38.8,34.4,29.92,WSW,258,6.3,12.8,84,0.00,,OVC085,0.00,VWS V14.01,2013-04-20 00:45:00,
2013-04-19 19:50:00,38.8,34.4,29.92,WNW,301,8.7,12.3,84,0.00,,OVC085,0.00,VWS V14.01,2013-04-20 00:50:00,
2013-04-19 19:55:00,38.8,34.4,29.92,WSW,243,5.8,8.7,84,0.00,,OVC085,0.00,VWS V14.01,2013-04-20 00:55:00,
2013-04-19 20:00:00,38.8,34.4,29.92,NW,312,7.6,10.5,84,0.00,,OVC085,0.00,VWS V14.01,2013-04-20 01:00:00,
2013-04-19 20:05:00,38.8,34.4,29.92,WNW,293,8.7,8.7,84,0.00,,BKN075,0.00,VWS V14.01,2013-04-20 01:05:00,
2013-04-19 20:10:00,38.7,34.2,29.92,NNW,343,4.9,4.9,84,0.00,,BKN075,0.00,VWS V14.01,2013-04-20 01:10:00,
2013-04-19 20:15:00,38.5,34.1,29.92,West,276,2.7,6.3,84,0.00,,BKN075,0.00,VWS V14.01,2013-04-20 01:15:00,
2013-04-19 20:20:00,38.7,34.2,29.95,West,264,13.2,13.2,84,0.00,,OVC085,0.00,VWS V14.01,2013-04-20 01:20:00,
2013-04-19 20:25:00,38.8,34.4,29.95,SW,215,12.8,12.8,84,0.00,,OVC085,0.00,VWS V14.01,2013-04-20 01:25:00,
2013-04-19 20:30:00,38.8,34.4,29.95,WNW,298,4.9,12.3,84,0.00,,OVC085,0.00,VWS V14.01,2013-04-20 01:30:00,
2013-04-19 20:36:00,38.8,34.4,29.95,SW,235,6.3,7.6,84,0.00,,OVC085,0.00,VWS V14.01,2013-04-20 01:36:00,
2013-04-19 20:41:00,38.8,34.4,29.95,NW,316,3.6,8.1,84,0.00,,OVC075,0.00,VWS V14.01,2013-04-20 01:41:00,
2013-04-19 20:46:00,38.8,34.4,29.95,NW,325,3.6,3.6,84,0.00,,OVC075,0.00,VWS V14.01,2013-04-20 01:46:00,
2013-04-19 20:51:00,38.8,34.4,29.95,NNW,328,7.6,11.4,84,0.00,,OVC075,0.00,VWS V14.01,2013-04-20 01:51:00,
2013-04-19 20:56:00,38.8,34.4,29.95,North,0,8.1,8.1,84,0.00,,OVC075,0.00,VWS V14.01,2013-04-20 01:56:00,
2013-04-19 21:01:00,38.7,34.2,29.98,WNW,302,3.1,8.1,84,0.00,,OVC085,0.00,VWS V14.01,2013-04-20 02:01:00,
2013-04-19 21:06:00,38.5,34.1,29.98,NNW,345,5.4,6.3,84,0.00,,OVC085,0.00,VWS V14.01,2013-04-20 02:06:00,
2013-04-19 21:11:00,38.5,34.1,29.98,NNW,335,3.1,5.4,84,0.00,,OVC085,0.00,VWS V14.01,2013-04-20 02:11:00,
2013-04-19 21:16:00,38.3,33.9,29.98,NW,304,0.0,11.0,84,0.00,,OVC085,0.00,VWS V14.01,2013-04-20 02:16:00,
2013-04-19 21:21:00,38.1,33.7,29.98,WSW,239,6.3,8.7,84,0.00,,RA,0.00,VWS V14.01,2013-04-20 02:21:00,
2013-04-19 21:26:00,37.9,33.5,29.98,North,353,6.3,6.3,84,0.00,,RA,0.00,VWS V14.01,2013-04-20 02:26:00,
2013-04-19 21:32:00,37.9,33.5,29.98,NW,326,7.6,9.6,84,0.00,,RA,0.00,VWS V14.01,2013-04-20 02:32:00,
2013-04-19 21:37:00,37.9,33.5,29.98,NNW,338,4.0,5.8,84,0.00,,RA,0.00,VWS V14.01,2013-04-20 02:37:00,
2013-04-19 21:42:00,37.8,33.4,29.98,NW,309,4.5,8.1,84,0.00,,SCT050,0.00,VWS V14.01,2013-04-20 02:42:00,
2013-04-19 21:47:00,37.6,33.2,29.98,WSW,248,5.4,7.6,84,0.00,,SCT050,0.00,VWS V14.01,2013-04-20 02:47:00,
2013-04-19 21:52:00,37.6,33.2,29.98,NW,325,4.0,8.7,84,0.00,,SCT050,0.00,VWS V14.01,2013-04-20 02:52:00,
2013-04-19 21:57:00,37.6,33.2,29.98,NNW,329,4.0,6.3,84,0.00,,SCT050,0.00,VWS V14.01,2013-04-20 02:57:00,
2013-04-19 22:02:00,37.6,33.2,29.98,NW,319,6.3,8.1,84,0.00,,BKN070,0.00,VWS V14.01,2013-04-20 03:02:00,
2013-04-19 22:07:00,37.6,33.2,29.98,West,260,4.9,6.3,84,0.00,,BKN070,0.00,VWS V14.01,2013-04-20 03:07:00,
2013-04-19 22:12:00,37.4,33.0,29.98,NNW,335,0.0,7.6,84,0.00,,BKN070,0.00,VWS V14.01,2013-04-20 03:12:00,
2013-04-19 22:17:00,37.4,33.0,30.01,NW,315,0.0,8.3,84,0.00,,BKN070,0.00,VWS V14.01,2013-04-20 03:17:00,
2013-04-19 22:22:00,37.4,33.0,30.01,NNW,329,5.4,11.4,84,0.00,,SCT075,0.00,VWS V14.01,2013-04-20 03:22:00,
2013-04-19 22:28:00,37.4,33.0,30.01,NW,316,5.4,10.5,84,0.00,,SCT075,0.00,VWS V14.01,2013-04-20 03:28:00,
2013-04-19 22:33:00,37.6,33.2,30.01,WNW,287,6.3,7.6,84,0.00,,SCT075,0.00,VWS V14.01,2013-04-20 03:33:00,
2013-04-19 22:38:00,37.6,33.2,30.01,WNW,291,8.7,8.7,84,0.00,,SCT075,0.00,VWS V14.01,2013-04-20 03:38:00,
2013-04-19 22:43:00,37.6,33.2,30.01,NNW,343,6.3,7.6,84,0.00,,SCT065,0.00,VWS V14.01,2013-04-20 03:43:00,
2013-04-19 22:48:00,37.6,33.2,30.01,SE,141,3.6,5.8,84,0.00,,SCT065,0.00,VWS V14.01,2013-04-20 03:48:00,
2013-04-19 22:53:00,37.4,33.0,30.01,WNW,291,2.2,8.1,84,0.00,,SCT065,0.00,VWS V14.01,2013-04-20 03:53:00,
2013-04-19 22:58:00,37.4,33.0,30.01,NW,310,3.1,7.6,84,0.00,,SCT065,0.00,VWS V14.01,2013-04-20 03:58:00,
2013-04-19 23:01:00,37.4,33.0,30.01,WSW,249,4.0,4.0,84,0.00,,SCT065,0.00,VWS V14.01,2013-04-20 04:01:00,
2013-04-19 23:02:00,37.4,33.0,30.01,West,280,2.7,8.7,84,0.00,,SCT055,0.00,VWS V14.01,2013-04-20 04:02:00,
2013-04-19 23:08:00,37.2,32.8,30.01,NW,309,3.6,6.3,84,0.00,,SCT055,0.00,VWS V14.01,2013-04-20 04:08:00,
2013-04-19 23:13:00,37.2,32.8,30.01,WNW,303,3.6,5.4,84,0.00,,SCT055,0.00,VWS V14.01,2013-04-20 04:13:00,
2013-04-19 23:18:00,37.0,32.7,30.01,West,279,0.0,6.3,84,0.00,,SCT055,0.00,VWS V14.01,2013-04-20 04:18:00,
2013-04-19 23:23:00,37.0,32.7,30.01,North,357,2.7,5.8,84,0.00,,CLR,0.00,VWS V14.01,2013-04-20 04:23:00,
2013-04-19 23:28:00,36.9,32.5,30.01,NW,315,3.6,8.1,84,0.00,,CLR,0.00,VWS V14.01,2013-04-20 04:28:00,
2013-04-19 23:33:00,36.9,32.5,30.01,NW,308,0.0,7.6,84,0.00,,CLR,0.00,VWS V14.01,2013-04-20 04:33:00,
2013-04-19 23:38:00,36.7,32.3,30.01,NNW,333,4.0,7.2,84,0.00,,CLR,0.00,VWS V14.01,2013-04-20 04:38:00,
2013-04-19 23:43:00,36.7,32.3,30.01,WNW,293,3.1,6.3,84,0.00,,CLR,0.00,VWS V14.01,2013-04-20 04:43:00,
2013-04-19 23:48:00,36.5,32.1,30.01,SW,227,4.0,8.1,84,0.00,,CLR,0.00,VWS V14.01,2013-04-20 04:48:00,
2013-04-19 23:53:00,36.3,32.0,30.01,North,353,5.8,8.3,84,0.00,,CLR,0.00,VWS V14.01,2013-04-20 04:53:00,
2013-04-19 23:58:00,36.3,32.0,30.01,North,0,3.6,7.6,84,0.00,,CLR,0.00,VWS V14.01,2013-04-20 04:58:00,